Weather History for Amarillo, TX

Change the Weather History Date:

Friday, September 13, 2013

  Actual Average Record
Temperature  
Mean Temperature 76 °F 71 °F  
Max Temperature 86 °F 84 °F 99 °F (1956)
Min Temperature 65 °F 58 °F 40 °F (1959)
Degree Days  
Heating Degree Days 0 1  
Month to date heating degree days 0 4  
Since 1 July heating degree days 0 5  
Cooling Degree Days 11 7  
Month to date cooling degree days 182 106  
Year to date cooling degree days 1678 1298  
Growing Degree Days 25 (Base 50)    
Moisture  
Dew Point 60 °F    
Average Humidity 68    
Maximum Humidity 93    
Minimum Humidity 43    
Precipitation  
Precipitation T in 0.07 in 0.54 in (1925)
Month to date precipitation T 0.88  
Year to date precipitation 12.38 16.15  
Snow  
Snow 0.00 in 0.00 in 0.00 in ()
Month to date snowfall 0.0 0.0  
Since 1 July snowfall 0.0 0.0  
Since 1 September snowfall 0.0 0.0  
Snow Depth 0.00 in    
Sea Level Pressure  
Sea Level Pressure 29.96 in    
Wind  
Wind Speed 13 mph (SE)    
Max Wind Speed 28 mph    
Max Gust Speed 35 mph    
Visibility 10 miles    
Events Rain    
T = Trace of Precipitation, MM = Missing Value Source: NWS Daily Summary

Daily Weather History Graph

Daily Weather History Graph

Search for Another Location

Airport:

Trip Planner

Search our weather history database for the weather conditions in past years. The results will help you decide how hot, cold, wet, or windy it might be!

Date:

Astronomy

Sep. 13, 2013 Rise Set
Actual Time 7:28 AM CDT 7:56 PM CDT
Civil Twilight 7:02 AM CDT 8:21 PM CDT
Nautical Twilight 6:32 AM CDT 8:51 PM CDT
Astronomical Twilight 6:02 AM CDT 9:22 PM CDT
Moon 3:38 PM CDT (9/13) 1:09 AM CDT (9/13)
Length of Visible Light 13h 18m
Length of Day
12h 27m
First Quarter, 61% of the Moon is Illuminated
Sep 13
First Quarter
Sep 19
Full
Sep 26
Last Quarter
Oct 4
New
Oct 11
First Quarter

Hourly Weather History & Observations

Time (CDT) Temp. Heat Index Dew Point Humidity Pressure Visibility Wind Dir Wind Speed Gust Speed Precip Events Conditions
12:53 AM 69.1 °F - 51.1 °F 53% 30.00 in 10.0 mi SE 6.9 mph - N/A   Clear
1:53 AM 70.0 °F - 54.0 °F 57% 29.99 in 10.0 mi East 10.4 mph - N/A   Clear
2:53 AM 69.1 °F - 57.9 °F 68% 29.99 in 10.0 mi East 12.7 mph - N/A   Clear
3:53 AM 68.0 °F - 61.0 °F 78% 29.98 in 10.0 mi ESE 10.4 mph - N/A   Clear
4:53 AM 66.9 °F - 61.0 °F 81% 29.98 in 10.0 mi ESE 10.4 mph - N/A   Partly Cloudy
5:53 AM 66.9 °F - 61.0 °F 81% 29.99 in 9.0 mi ESE 12.7 mph - N/A   Scattered Clouds
6:53 AM 66.0 °F - 62.1 °F 87% 29.99 in 8.0 mi ESE 12.7 mph - 0.01 in   Mostly Cloudy
7:53 AM 64.9 °F - 62.1 °F 90% 30.00 in 6.0 mi ESE 11.5 mph - N/A   Partly Cloudy
8:53 AM 68.0 °F - 63.0 °F 84% 30.01 in 7.0 mi SE 13.8 mph - N/A   Partly Cloudy
9:53 AM 71.1 °F - 63.0 °F 75% 30.01 in 8.0 mi SE 15.0 mph - N/A   Clear
10:53 AM 75.9 °F - 63.0 °F 64% 30.01 in 10.0 mi SE 12.7 mph - N/A   Clear
11:53 AM 80.1 °F 81.1 °F 61.0 °F 52% 29.99 in 10.0 mi SE 10.4 mph - N/A   Scattered Clouds
12:53 PM 82.9 °F 82.6 °F 57.9 °F 42% 29.97 in 10.0 mi South 11.5 mph - N/A   Mostly Cloudy
1:53 PM 82.9 °F 82.4 °F 57.0 °F 41% 29.94 in 10.0 mi South 12.7 mph - N/A   Scattered Clouds
2:53 PM 82.9 °F 82.4 °F 57.0 °F 41% 29.91 in 10.0 mi SSE 15.0 mph 21.9 mph N/A   Scattered Clouds
3:53 PM 75.9 °F - 57.0 °F 52% 29.90 in 10.0 mi SSE 17.3 mph - 0.00 in Rain Light Rain
4:53 PM 81.0 °F 81.3 °F 59.0 °F 47% 29.88 in 10.0 mi SSE 17.3 mph - 0.00 in   Overcast
5:53 PM 79.0 °F - 57.0 °F 47% 29.87 in 10.0 mi SE 12.7 mph - N/A   Clear
6:53 PM 77.0 °F - 57.9 °F 52% 29.88 in 10.0 mi SE 10.4 mph - N/A   Mostly Cloudy
7:53 PM 70.0 °F - 64.0 °F 81% 29.92 in 10.0 mi ESE 21.9 mph 27.6 mph N/A   Overcast
8:30 PM 68.0 °F - 64.4 °F 88% 30.05 in 10.0 mi ESE 26.5 mph 34.5 mph N/A   Overcast
8:41 PM 68.0 °F - 64.4 °F 88% 30.05 in 10.0 mi ESE 21.9 mph 33.4 mph N/A   Overcast
8:53 PM 66.9 °F - 62.1 °F 84% 29.92 in 10.0 mi ESE 20.7 mph 27.6 mph N/A   Mostly Cloudy
9:53 PM 66.0 °F - 60.1 °F 81% 29.96 in 10.0 mi SE 16.1 mph - N/A   Overcast
10:53 PM 66.0 °F - 61.0 °F 84% 29.97 in 10.0 mi SSE 5.8 mph - N/A   Overcast
11:53 PM 66.0 °F - 61.0 °F 84% 29.94 in 10.0 mi SE 11.5 mph - N/A   Overcast